DM5RC Weather Reports


time (UTC)temp
C
wind
direction
speed
KPH
gust
KPH
rain 1hr
cm
rain 24hr
cm
rain mn
cm
humidity
%
barometer
mb
20260901054829 16 267 12.9 25.7 0.00 0.00 0.00 84 1015.8
20260901054348 16 244 11.3 20.9 0.00 0.00 0.00 84 1015.8
20260901053813 16 257 11.3 24.1 0.00 0.00 0.00 84 1015.7
20260901053315 16 229 12.9 24.1 0.00 0.00 0.00 84 1015.7
20260901052818 15 252 8.0 24.1 0.00 0.00 0.00 85 1015.7
20260901052322 15 259 14.5 24.1 0.00 0.00 0.00 85 1015.6
20260901051827 15 207 8.0 24.1 0.00 0.00 0.00 85 1015.5
20260901051330 15 259 9.7 19.3 0.00 0.00 0.00 85 1015.6
20260901050831 15 240 8.0 20.9 0.00 0.00 0.00 85 1015.4
20260901050312 15 239 12.9 20.9 0.00 0.00 0.00 85 1015.4
20260901045813 15 286 8.0 19.3 0.00 0.00 0.00 85 1015.3
20260901045335 15 262 8.0 25.7 0.00 0.00 0.00 85 1015.3
20260901044831 15 256 12.9 25.7 0.00 0.00 0.00 85 1015.2
20260901044330 15 30 11.3 25.7 0.00 0.00 0.00 85 1015.1
20260901043831 15 276 11.3 25.7 0.00 0.00 0.00 85 1015.1
20260901043332 15 264 9.7 27.4 0.00 0.00 0.00 85 1014.9
20260901042832 15 264 12.9 27.4 0.00 0.00 0.00 84 1014.9
20260901042332 15 266 11.3 20.9 0.00 0.00 0.00 84 1014.8
20260901041814 15 247 8.0 19.3 0.00 0.00 0.00 84 1014.8
20260901041315 15 233 9.7 17.7 0.00 0.00 0.00 85 1014.7
20260901040815 15 265 9.7 22.5 0.00 0.00 0.00 84 1014.7
20260901040318 15 257 8.0 22.5 0.00 0.00 0.00 84 1014.6
20260901035822 15 300 9.7 20.9 0.00 0.00 0.00 84 1014.6
20260901035323 15 219 9.7 20.9 0.00 0.00 0.00 84 1014.6
20260901034825 15 259 6.4 22.5 0.00 0.00 0.00 84 1014.5
20260901034325 15 247 8.0 22.5 0.00 0.00 0.00 84 1014.5
20260901033846 15 255 11.3 19.3 0.00 0.00 0.00 83 1014.4
20260901033328 16 217 8.0 16.1 0.00 0.00 0.00 83 1014.3
20260901032831 16 238 8.0 20.9 0.00 0.00 0.00 83 1014.4
20260901032314 16 228 12.9 20.9 0.00 0.00 0.00 83 1014.4
20260901031815 16 260 6.4 20.9 0.00 0.00 0.00 82 1014.4
20260901031318 16 226 8.0 20.9 0.00 0.00 0.00 82 1014.4
20260901030822 16 267 9.7 22.5 0.00 0.00 0.00 82 1014.4
20260901030323 16 275 9.7 22.5 0.00 0.00 0.00 82 1014.4
20260901025826 16 233 12.9 22.5 0.00 0.00 0.00 82 1014.3
20260901025329 16 278 11.3 24.1 0.00 0.00 0.00 82 1014.3
20260901024813 16 198 11.3 24.1 0.00 0.00 0.00 82 1014.3
20260901024315 16 243 9.7 17.7 0.00 0.00 0.00 82 1014.3
20260901023817 16 255 8.0 22.5 0.00 0.00 0.00 82 1014.2
20260901023340 16 231 9.7 22.5 0.00 0.00 0.00 82 1014.3
20260901022842 16 262 11.3 19.3 0.00 0.00 0.00 82 1014.3
20260901022324 16 245 11.3 20.9 0.00 0.00 0.00 82 1014.4
20260901021827 16 187 8.0 20.9 0.00 0.00 0.00 82 1014.3
20260901021349 16 238 9.7 20.9 0.00 0.00 0.00 82 1014.3
20260901020828 16 272 9.7 19.3 0.00 0.00 0.00 82 1014.2
20260901020332 16 259 11.3 19.3 0.00 0.00 0.00 82 1014.2
20260901015814 16 236 6.4 20.9 0.00 0.00 0.00 82 1014.3
20260901015314 16 235 8.0 16.1 0.00 0.00 0.00 82 1014.3
20260901014817 16 283 6.4 16.1 0.00 0.00 0.00 82 1014.2
20260901014320 16 207 6.4 11.3 0.00 0.00 0.00 82 1014.3
20260901013824 16 229 6.4 17.7 0.00 0.00 0.00 81 1014.3
20260901013328 16 250 9.7 17.7 0.00 0.00 0.00 81 1014.3
20260901012831 16 256 6.4 17.7 0.00 0.00 0.00 81 1014.3
20260901012335 16 206 8.0 17.7 0.00 0.00 0.00 81 1014.4
20260901011814 16 271 11.3 17.7 0.00 0.00 0.00 81 1014.5
20260901011316 16 250 8.0 17.7 0.00 0.00 0.00 81 1014.5
20260901010815 16 243 6.4 14.5 0.00 0.00 0.00 80 1014.5
20260901010335 16 235 6.4 12.9 0.00 0.00 0.00 80 1014.5
20260901005814 16 220 6.4 11.3 0.00 0.00 0.00 80 1014.5
20260901005335 16 259 6.4 11.3 0.00 0.00 0.00 80 1014.5
20260901004815 16 228 4.8 14.5 0.00 0.00 0.00 80 1014.4
20260901004318 16 214 4.8 19.3 0.00 0.00 0.00 79 1014.4
20260901003841 16 281 4.8 16.1 0.00 0.00 0.00 79 1014.3
20260901003323 16 239 9.7 16.1 0.00 0.00 0.00 79 1014.3
20260901002817 16 266 8.0 16.1 0.00 0.00 0.00 79 1014.3
20260901002318 16 252 6.4 16.1 0.00 0.00 0.00 79 1014.3
20260901001818 17 281 9.7 17.7 0.00 0.00 0.00 79 1014.3
20260901001320 17 254 9.7 20.9 0.00 0.00 0.00 79 1014.3
20260901000822 17 244 6.4 20.9 0.00 0.00 0.00 79 1014.2
20260901000323 17 269 9.7 27.4 0.00 0.00 0.00 78 1014.2
20260831235825 17 281 11.3 27.4 0.00 0.00 0.00 78 1014.1
20260831235328 17 189 8.0 20.9 0.00 0.00 0.00 78 1014.1
20260831234822 17 267 9.7 20.9 0.00 0.00 0.00 78 1014.1
20260831234324 17 288 6.4 19.3 0.00 0.00 0.00 79 1014.2
20260831233826 17 257 6.4 17.7 0.00 0.00 0.00 79 1014.0
20260831233327 17 263 9.7 17.7 0.00 0.00 0.00 79 1014.2
20260831232828 17 277 8.0 20.9 0.00 0.00 0.00 79 1014.1
20260831232329 17 258 11.3 20.9 0.00 0.00 0.00 79 1014.0
20260831231813 17 255 9.7 22.5 0.00 0.00 0.00 78 1013.9
20260831231315 17 277 6.4 20.9 0.00 0.00 0.00 79 1013.9
20260831230819 17 233 9.7 22.5 0.00 0.00 0.00 79 1014.0
20260831230342 17 226 8.0 19.3 0.00 0.00 0.00 79 1013.9
20260831225823 17 279 11.3 22.5 0.00 0.00 0.00 79 1013.9
20260831225324 17 284 11.3 25.7 0.00 0.00 0.00 79 1013.8
20260831224825 17 274 11.3 25.7 0.00 0.00 0.00 79 1013.8
20260831224325 17 273 8.0 16.1 0.00 0.00 0.00 79 1013.6
20260831223826 17 264 8.0 14.5 0.00 0.00 0.00 80 1013.6
20260831223327 16 267 4.8 16.1 0.00 0.00 0.00 80 1013.5
20260831222828 16 267 3.2 9.7 0.00 0.00 0.00 81 1013.4
20260831222328 16 278 3.2 8.0 0.00 0.00 0.00 82 1013.4
20260831221829 16 254 4.8 8.0 0.00 0.00 0.00 84 1013.3
20260831221330 15 260 1.6 3.2 0.00 0.00 0.00 85 1013.4
20260831220846 15 259 0.0 1.6 0.00 0.00 0.00 86 1013.4
20260831220325 15 266 0.0 0.0 0.00 0.00 0.00 86 1013.3
20260831215825 15 266 0.0 0.0 0.00 0.00 0.00 85 1013.3
20260831215325 15 266 0.0 0.0 0.00 0.00 0.00 84 1013.4
20260831214826 15 266 0.0 0.0 0.00 0.00 0.00 83 1013.3
20260831214348 15 266 0.0 0.0 0.00 0.00 0.00 83 1013.1
20260831213832 15 266 0.0 0.0 0.00 0.00 0.00 82 1013.1
20260831213335 16 266 0.0 0.0 0.00 0.00 0.00 82 1013.0
20260831212859 16 266 0.0 0.0 0.00 0.00 0.00 82 1013.2
20260831212322 16 266 0.0 0.0 0.00 0.00 0.00 82 1013.2
20260831211825 16 266 0.0 1.6 0.00 0.00 0.00 81 1013.3
20260831211349 16 266 0.0 1.6 0.00 0.00 0.00 81 1013.2
20260831210830 16 266 0.0 3.2 0.00 0.00 0.00 80 1013.2
20260831210332 16 266 1.6 6.4 0.00 0.00 0.00 80 1013.3
20260831205812 17 264 3.2 8.0 0.00 0.00 0.00 79 1013.2
20260831205312 17 261 3.2 9.7 0.00 0.00 0.00 79 1013.2
20260831204814 17 265 4.8 9.7 0.00 0.00 0.00 79 1013.3
20260831204314 17 262 1.6 9.7 0.00 0.00 0.00 79 1013.1
20260831203835 17 267 3.2 11.3 0.00 0.00 0.00 79 1013.0
20260831203314 17 257 8.0 11.3 0.00 0.00 0.00 78 1013.1
20260831202815 17 257 3.2 11.3 0.00 0.00 0.00 78 1012.9
20260831202316 17 275 3.2 12.9 0.00 0.00 0.00 77 1013.0
20260831201820 17 245 6.4 12.9 0.00 0.00 0.00 76 1012.9
20260831201320 18 18 4.8 14.5 0.00 0.00 0.00 76 1012.7
20260831200838 18 271 4.8 22.5 0.00 0.00 0.00 76 1012.7
20260831200317 18 298 11.3 22.5 0.00 0.00 0.00 75 1013.0
20260831195817 19 252 9.7 20.9 0.00 0.00 0.00 72 1013.1
20260831195337 19 334 6.4 12.9 0.00 0.00 0.00 70 1013.0
20260831194838 20 278 3.2 12.9 0.00 0.00 0.00 69 1012.6
20260831194338 20 326 8.0 19.3 0.00 0.00 0.00 69 1012.5
20260831193819 20 281 8.0 14.5 0.00 0.00 0.00 68 1012.5
20260831193321 20 333 8.0 22.5 0.00 0.00 0.00 67 1012.4
20260831192824 21 286 6.4 22.5 0.00 0.00 0.00 65 1012.5
20260831192326 21 291 4.8 30.6 0.00 0.00 0.00 63 1012.3
20260831191829 22 284 6.4 30.6 0.00 0.00 0.00 62 1012.2
20260831191332 22 252 17.7 30.6 0.00 0.00 0.00 62 1012.0
20260831190813 22 288 11.3 20.9 0.00 0.00 0.00 62 1011.9
20260831190315 22 238 9.7 29.0 0.00 0.00 0.00 61 1011.7
20260831185817 22 165 9.7 29.0 0.00 0.00 0.00 61 1011.6
20260831185318 22 286 8.0 19.3 0.00 0.00 0.00 61 1011.7
20260831184821 22 252 6.4 16.1 0.00 0.00 0.00 60 1011.6
20260831184323 22 267 8.0 22.5 0.00 0.00 0.00 60 1011.5
20260831183825 22 219 11.3 22.5 0.00 0.00 0.00 60 1011.5
20260831183327 22 235 8.0 14.5 0.00 0.00 0.00 60 1011.2
20260831182830 22 206 3.2 9.7 0.00 0.00 0.00 60 1011.3
20260831182335 22 217 3.2 11.3 0.00 0.00 0.00 59 1011.2
20260831181818 22 257 4.8 11.3 0.00 0.00 0.00 59 1011.2
20260831180839 22 226 4.8 9.7 0.00 0.00 0.00 58 1011.2
20260831180323 22 258 3.2 9.7 0.00 0.00 0.00 58 1011.1
20260831175827 23 249 4.8 9.7 0.00 0.00 0.00 58 1011.1
20260831175312 23 258 1.6 11.3 0.00 0.00 0.00 57 1011.0
20260831174817 23 270 6.4 16.1 0.00 0.00 0.00 57 1011.0
20260831173822 23 270 8.0 17.7 0.00 0.00 0.00 56 1011.0
20260831173322 23 263 9.7 17.7 0.00 0.00 0.00 56 1011.1
20260831172822 23 267 11.3 20.9 0.00 0.00 0.00 56 1011.1
20260831172343 23 279 9.7 32.2 0.00 0.00 0.00 55 1011.0
20260831171823 23 187 11.3 29.0 0.00 0.00 0.00 55 1011.0
20260831171324 23 230 9.7 27.4 0.00 0.00 0.00 55 1011.0
20260831170824 24 252 12.9 27.4 0.00 0.00 0.00 55 1011.0
20260831170325 24 281 12.9 19.3 0.00 0.00 0.00 55 1010.9
20260831165829 24 252 9.7 25.7 0.00 0.00 0.00 55 1010.9
20260831165332 24 278 12.9 24.1 0.00 0.00 0.00 55 1010.8
20260831164835 24 257 8.0 24.1 0.00 0.00 0.00 56 1010.9
20260831164317 24 278 11.3 20.9 0.00 0.00 0.00 56 1011.0
20260831163820 24 246 11.3 22.5 0.00 0.00 0.00 56 1011.0
20260831163324 24 266 9.7 22.5 0.00 0.00 0.00 56 1010.9
20260831162827 24 238 8.0 16.1 0.00 0.00 0.00 57 1010.9
20260831162329 24 272 4.8 14.5 0.00 0.00 0.00 59 1010.9
20260831161813 24 271 6.4 19.3 0.00 0.00 0.00 59 1010.9
20260831161334 24 267 6.4 19.3 0.00 0.00 0.00 60 1010.9
20260831160838 24 259 8.0 16.1 0.00 0.00 0.00 60 1011.0
20260831160319 24 233 4.8 14.5 0.00 0.00 0.00 60 1010.8
20260831155824 24 226 6.4 14.5 0.00 0.00 0.00 61 1010.9
20260831155326 24 255 6.4 19.3 0.00 0.00 0.00 60 1010.9
20260831154829 24 224 9.7 19.3 0.00 0.00 0.00 59 1010.9
20260831154330 24 277 9.7 22.5 0.00 0.00 0.00 60 1010.9
20260831153812 24 217 8.0 25.7 0.00 0.00 0.00 60 1011.0
20260831153315 25 283 12.9 25.7 0.00 0.00 0.00 59 1011.0
20260831152816 25 219 6.4 16.1 0.00 0.00 0.00 60 1011.1
20260831152316 25 258 8.0 25.7 0.00 0.00 0.00 60 1011.1
20260831151818 24 225 14.5 25.7 0.00 0.00 0.00 59 1011.1
20260831151322 24 210 12.9 32.2 0.00 0.00 0.00 59 1011.2
20260831150825 24 278 12.9 32.2 0.00 0.00 0.00 60 1011.2
20260831150348 24 241 12.9 24.1 0.00 0.00 0.00 60 1011.2
20260831145831 24 231 12.9 24.1 0.00 0.00 0.00 61 1011.2
20260831145316 23 274 9.7 22.5 0.00 0.00 0.00 62 1011.2
20260831144821 23 248 8.0 24.1 0.00 0.00 0.00 62 1011.2
20260831143821 24 251 14.5 29.0 0.00 0.00 0.00 61 1011.2
20260831142836 24 229 9.7 29.0 0.00 0.00 0.00 64 1011.3
20260831142316 24 266 12.9 29.0 0.00 0.00 0.00 62 1011.2
20260831141817 24 248 11.3 20.9 0.00 0.00 0.00 63 1011.2
20260831141316 24 255 11.3 22.5 0.00 0.00 0.00 64 1011.2
20260831140817 24 263 9.7 29.0 0.00 0.00 0.00 66 1011.2
20260831140317 23 256 14.5 20.9 0.00 0.00 0.00 65 1011.3
20260831135817 23 270 4.8 17.7 0.00 0.00 0.00 67 1011.3
20260831135318 23 259 8.0 20.9 0.00 0.00 0.00 67 1011.4
20260831134815 23 257 9.7 20.9 0.00 0.00 0.00 68 1011.4
20260831134315 23 199 6.4 19.3 0.00 0.00 0.00 67 1011.4
20260831133817 24 181 8.0 19.3 0.00 0.00 0.00 67 1011.4
20260831133320 23 209 1.6 11.3 0.00 0.00 0.00 70 1011.4
20260831132822 23 231 3.2 14.5 0.00 0.00 0.00 71 1011.3
20260831132325 22 261 8.0 14.5 0.00 0.00 0.00 71 1011.4
20260831131828 22 287 6.4 19.3 0.00 0.00 0.00 71 1011.4
20260831131331 23 266 9.7 20.9 0.00 0.00 0.00 69 1011.4
20260831130814 23 245 8.0 20.9 0.00 0.00 0.00 69 1011.4
20260831130315 22 264 9.7 19.3 0.00 0.00 0.00 71 1011.4
20260831125817 23 233 9.7 17.7 0.00 0.00 0.00 71 1011.4
20260831125339 23 277 8.0 19.3 0.00 0.00 0.00 71 1011.4
20260831124820 23 262 11.3 19.3 0.00 0.00 0.00 71 1011.4
20260831124323 22 319 8.0 17.7 0.00 0.00 0.00 73 1011.4
20260831123827 22 229 8.0 22.5 0.00 0.00 0.00 74 1011.5
20260831123351 22 253 11.3 22.5 0.00 0.00 0.00 73 1011.6
20260831122834 22 205 11.3 19.3 0.00 0.00 0.00 74 1011.6
20260831122314 22 176 8.0 16.1 0.00 0.00 0.00 75 1011.5
20260831121817 22 233 9.7 16.1 0.00 0.00 0.00 75 1011.6
20260831121320 22 279 4.8 22.5 0.00 0.00 0.00 74 1011.5
20260831120823 22 268 11.3 22.5 0.00 0.00 0.00 74 1011.5
20260831120325 22 223 9.7 19.3 0.00 0.00 0.00 74 1011.5
20260831115826 22 234 11.3 20.9 0.00 0.00 0.00 74 1011.5
20260831115329 22 271 11.3 20.9 0.00 0.00 0.00 73 1011.4
20260831114830 22 264 9.7 19.3 0.00 0.00 0.00 73 1011.4
20260831114334 22 226 3.2 14.5 0.00 0.00 0.00 73 1011.4
20260831113816 22 242 8.0 20.9 0.00 0.00 0.00 74 1011.4
20260831113320 22 231 9.7 20.9 0.00 0.00 0.00 74 1011.5
20260831112823 22 236 9.7 19.3 0.00 0.00 0.00 74 1011.6
20260831112327 22 226 12.9 19.3 0.00 0.00 0.00 73 1011.6
20260831111831 22 272 8.0 16.1 0.00 0.00 0.00 73 1011.6
20260831111315 21 243 6.4 14.5 0.00 0.00 0.00 73 1011.6
20260831110818 21 184 9.7 17.7 0.00 0.00 0.00 73 1011.6
20260831110321 22 236 9.7 17.7 0.00 0.00 0.00 72 1011.6
20260831105845 22 211 4.8 11.3 0.00 0.00 0.00 72 1011.5
20260831105325 22 236 4.8 9.7 0.00 0.00 0.00 71 1011.6
20260831104826 22 271 6.4 9.7 0.00 0.00 0.00 71 1011.6
20260831104326 22 278 6.4 12.9 0.00 0.00 0.00 71 1011.6
20260831103826 22 288 1.6 9.7 0.00 0.00 0.00 71 1011.6
20260831103348 22 276 0.0 12.9 0.00 0.00 0.00 71 1011.6
20260831102829 22 271 1.6 12.9 0.00 0.00 0.00 71 1011.6
20260831102344 22 318 6.4 12.9 0.00 0.00 0.00 70 1011.7
20260831101825 22 245 3.2 14.5 0.00 0.00 0.00 72 1011.7
20260831101326 22 269 8.0 14.5 0.00 0.00 0.00 72 1011.6
20260831100828 22 251 4.8 11.3 0.00 0.00 0.00 73 1011.8
20260831100331 21 242 6.4 9.7 0.00 0.00 0.00 74 1011.8
20260831095834 21 205 3.2 8.0 0.00 0.00 0.00 75 1011.9
20260831095314 21 281 4.8 8.0 0.00 0.00 0.00 76 1011.9
20260831094816 20 252 3.2 8.0 0.00 0.00 0.00 76 1011.8
20260831094315 20 151 1.6 8.0 0.00 0.00 0.00 78 1011.7
20260831093838 20 243 3.2 8.0 0.00 0.00 0.00 78 1011.8
20260831093317 20 213 3.2 8.0 0.00 0.00 0.00 79 1011.8
20260831092817 19 230 4.8 9.7 0.00 0.00 0.00 79 1011.8
20260831092316 19 226 4.8 9.7 0.00 0.00 0.00 79 1011.8
20260831091818 18 273 1.6 9.7 0.00 0.00 0.00 80 1011.9
20260831091321 18 271 6.4 11.3 0.00 0.00 0.00 80 1011.9
20260831090822 18 267 3.2 9.7 0.00 0.00 0.00 80 1011.9
20260831090323 18 276 4.8 6.4 0.00 0.00 0.00 80 1012.0
20260831085825 18 272 1.6 16.1 0.00 0.00 0.00 80 1011.8
20260831085327 18 274 9.7 17.7 0.00 0.00 0.00 79 1011.8
20260831084827 18 321 9.7 17.7 0.00 0.00 0.00 79 1011.9
20260831084327 18 264 8.0 12.9 0.00 0.00 0.00 79 1012.0
20260831083844 18 279 6.4 14.5 0.00 0.00 0.00 79 1011.9
20260831083323 18 275 8.0 17.7 0.00 0.00 0.00 79 1011.9
20260831082844 18 273 9.7 17.7 0.00 0.00 0.00 79 1011.9
20260831082325 18 281 8.0 14.5 0.00 0.00 0.00 79 1011.9
20260831081826 18 223 8.0 14.5 0.00 0.00 0.00 79 1011.8
20260831081327 18 253 6.4 14.5 0.00 0.00 0.00 79 1011.9
20260831080828 18 272 6.4 14.5 0.00 0.00 0.00 79 1011.9
20260831080330 18 262 1.6 11.3 0.00 0.00 0.00 79 1011.8
20260831075813 18 251 6.4 12.9 0.00 0.00 0.00 79 1011.7
20260831075315 18 258 6.4 12.9 0.00 0.00 0.00 79 1011.8
20260831074818 18 279 6.4 12.9 0.00 0.00 0.00 78 1011.8
20260831074321 18 250 8.0 12.9 0.00 0.00 0.00 79 1011.9
20260831073825 18 251 4.8 12.9 0.00 0.00 0.00 79 1011.8
20260831073328 17 208 6.4 12.9 0.00 0.00 0.00 79 1011.9
20260831072813 17 238 4.8 12.9 0.00 0.00 0.00 80 1011.8
20260831072313 17 233 6.4 12.9 0.00 0.00 0.00 81 1011.7
20260831071813 17 224 4.8 11.3 0.00 0.00 0.00 82 1011.7
20260831071315 17 242 3.2 8.0 0.00 0.00 0.00 82 1011.7
20260831070834 16 226 1.6 4.8 0.00 0.00 0.00 83 1011.6
20260831070314 16 252 0.0 6.4 0.00 0.00 0.00 84 1011.6
20260831065817 16 254 3.2 8.0 0.00 0.00 0.00 85 1011.6
20260831065318 16 257 3.2 8.0 0.00 0.00 0.00 85 1011.4
20260831064820 16 271 3.2 4.8 0.00 0.00 0.00 85 1011.4
20260831064342 16 134 0.0 0.0 0.00 0.00 0.00 85 1010.8
20260831063824 16 134 0.0 0.0 0.00 0.00 0.00 85 1010.8
20260831063326 16 134 0.0 0.0 0.00 0.00 0.00 85 1010.8
20260831062828 16 134 0.0 0.0 0.00 0.00 0.00 85 1010.9
20260831062329 16 134 0.0 0.0 0.00 0.00 0.00 86 1010.9
20260831061850 16 134 0.0 0.0 0.00 0.00 0.00 86 1010.8
20260831061330 15 134 0.0 0.0 0.00 0.00 0.00 86 1010.9
20260831060833 15 134 0.0 0.0 0.00 0.00 0.00 86 1010.9
20260831060335 15 134 0.0 0.0 0.00 0.00 0.00 87 1010.9
20260831055816 15 134 0.0 0.0 0.00 0.00 0.00 87 1010.9
20260831055338 15 134 0.0 0.0 0.00 0.00 0.00 87 1010.9